When you browse on this site, cookies collect data to enhance your experience and personalize the content and advertising you see.
Visit our Privacy Policy to learn more. By continuing to use the site, you agree to this use of cookies and data.
  • In United Kingdom
  • List of Countries
  • For 7 days
  • Water Temperature
  • Weather Map
  • Weather Widgets
  • user-avatar
    Login

    Hourly Weather Cochabamba

    Today, 16 October, Wednesday

    Time Temperature Precipitation Wind Pressure Humidity
    00:00 +16°C° 0 mm 1 mps 556 mmHg 73%
    01:00 +16°C° 0 mm 1 mps 555 mmHg 74%
    02:00 +16°C° 0 mm 1 mps 555 mmHg 76%
    03:00 +15°C° 0 mm 1 mps 555 mmHg 76%
    04:00 +15°C° 0 mm 1 mps 555 mmHg 76%
    05:00 +15°C° 0 mm 1 mps 555 mmHg 77%
    06:00 +16°C° 0 mm 1 mps 556 mmHg 73%
    07:00 +16°C° 0 mm 1 mps 556 mmHg 69%
    08:00 +18°C° 0 mm 1 mps 557 mmHg 65%
    09:00 +19°C° 0.1 mm 1 mps 558 mmHg 62%
    10:00 +19°C° 0.1 mm 2 mps 558 mmHg 60%
    11:00 +20°C° 0.1 mm 2 mps 558 mmHg 57%
    12:00 +20°C° 0.2 mm 3 mps 558 mmHg 57%
    13:00 +20°C° 0.2 mm 4 mps 557 mmHg 57%
    14:00 +21°C° 0.2 mm 4 mps 557 mmHg 57%
    15:00 +20°C° 0.1 mm 4 mps 556 mmHg 58%
    16:00 +20°C° 0.1 mm 4 mps 556 mmHg 58%
    17:00 +20°C° 0.1 mm 3 mps 555 mmHg 58%
    18:00 +19°C° 0 mm 3 mps 555 mmHg 62%
    19:00 +18°C° 0 mm 3 mps 555 mmHg 67%
    20:00 +17°C° 0 mm 3 mps 555 mmHg 71%
    21:00 +17°C° 0 mm 2 mps 555 mmHg 71%
    22:00 +17°C° 0 mm 2 mps 555 mmHg 72%
    23:00 +16°C° 0 mm 1 mps 555 mmHg 72%

    Tomorrow, 17 October, Thursday

    Time Temperature Precipitation Wind Pressure Humidity
    00:00 +16°C° 0 mm 1 mps 555 mmHg 73%
    01:00 +16°C° 0 mm 2 mps 555 mmHg 74%
    02:00 +15°C° 0 mm 2 mps 555 mmHg 75%
    03:00 +15°C° 0 mm 2 mps 554 mmHg 76%
    04:00 +15°C° 0 mm 2 mps 554 mmHg 77%
    05:00 +14°C° 0 mm 1 mps 554 mmHg 78%
    06:00 +15°C° 0 mm 1 mps 555 mmHg 74%
    07:00 +16°C° 0 mm 1 mps 556 mmHg 70%
    08:00 +18°C° 0 mm 1 mps 556 mmHg 66%
    09:00 +19°C° 0.1 mm 1 mps 557 mmHg 62%
    10:00 +21°C° 0.1 mm 1 mps 557 mmHg 59%
    11:00 +22°C° 0.1 mm 1 mps 558 mmHg 55%
    12:00 +21°C° 0.5 mm 2 mps 557 mmHg 55%
    13:00 +21°C° 0.5 mm 3 mps 557 mmHg 55%
    14:00 +22°C° 0.5 mm 4 mps 556 mmHg 55%
    15:00 +21°C° 0.5 mm 4 mps 556 mmHg 57%
    16:00 +20°C° 0.5 mm 4 mps 555 mmHg 60%
    17:00 +20°C° 0.5 mm 4 mps 554 mmHg 62%
    18:00 +19°C° 0.5 mm 3 mps 554 mmHg 66%
    19:00 +18°C° 0.5 mm 2 mps 554 mmHg 70%
    20:00 +18°C° 0.5 mm 1 mps 555 mmHg 73%
    21:00 +18°C° 1.3 mm 1 mps 555 mmHg 77%
    22:00 +16°C° 1.3 mm 1 mps 555 mmHg 80%
    23:00 +14°C° 1.3 mm 0 mps 554 mmHg 84%

    Day after tomorrow, 18 October, Friday

    Time Temperature Precipitation Wind Pressure Humidity
    00:00 +15°C° 0.5 mm 1 mps 554 mmHg 83%
    01:00 +15°C° 0.5 mm 1 mps 554 mmHg 82%
    02:00 +15°C° 0.5 mm 1 mps 554 mmHg 81%
    03:00 +15°C° 0.1 mm 1 mps 554 mmHg 81%
    04:00 +15°C° 0.1 mm 1 mps 554 mmHg 80%
    05:00 +15°C° 0.1 mm 1 mps 553 mmHg 80%
    06:00 +15°C° 0 mm 1 mps 554 mmHg 76%
    07:00 +16°C° 0 mm 2 mps 555 mmHg 72%
    08:00 +17°C° 0 mm 2 mps 556 mmHg 67%
    09:00 +18°C° 0.2 mm 2 mps 556 mmHg 64%
    10:00 +19°C° 0.2 mm 2 mps 557 mmHg 60%
    11:00 +20°C° 0.2 mm 3 mps 557 mmHg 56%
    12:00 +20°C° 0.2 mm 3 mps 557 mmHg 56%
    13:00 +20°C° 0.2 mm 3 mps 556 mmHg 57%
    14:00 +20°C° 0.2 mm 3 mps 555 mmHg 57%
    15:00 +20°C° 0.1 mm 3 mps 555 mmHg 58%
    16:00 +20°C° 0.1 mm 3 mps 555 mmHg 58%
    17:00 +20°C° 0.1 mm 3 mps 554 mmHg 59%
    18:00 +19°C° 0.1 mm 3 mps 554 mmHg 63%
    19:00 +18°C° 0.1 mm 3 mps 554 mmHg 67%
    20:00 +17°C° 0.1 mm 2 mps 555 mmHg 71%
    21:00 +17°C° 0.1 mm 2 mps 555 mmHg 71%
    22:00 +17°C° 0.1 mm 2 mps 555 mmHg 71%
    23:00 +17°C° 0.1 mm 2 mps 556 mmHg 71%

    19 October, Saturday

    Time Temperature Precipitation Wind Pressure Humidity
    00:00 +16°C° 0.4 mm 2 mps 555 mmHg 73%
    01:00 +16°C° 0.4 mm 2 mps 555 mmHg 76%
    02:00 +15°C° 0.4 mm 2 mps 555 mmHg 79%
    03:00 +15°C° 0.3 mm 2 mps 555 mmHg 78%
    04:00 +15°C° 0.3 mm 2 mps 555 mmHg 78%
    05:00 +15°C° 0.3 mm 2 mps 555 mmHg 78%
    06:00 +15°C° 0.1 mm 2 mps 556 mmHg 75%
    07:00 +16°C° 0.1 mm 2 mps 556 mmHg 73%
    08:00 +16°C° 0.1 mm 2 mps 557 mmHg 71%
    09:00 +17°C° 0.2 mm 2 mps 557 mmHg 67%
    10:00 +18°C° 0.2 mm 2 mps 558 mmHg 64%
    11:00 +19°C° 0.2 mm 2 mps 558 mmHg 60%
    12:00 +19°C° 0.2 mm 2 mps 557 mmHg 61%
    13:00 +19°C° 0.2 mm 2 mps 557 mmHg 61%
    14:00 +19°C° 0.2 mm 3 mps 556 mmHg 61%
    15:00 +19°C° 0.1 mm 3 mps 555 mmHg 62%
    16:00 +19°C° 0.1 mm 3 mps 555 mmHg 63%
    17:00 +19°C° 0.1 mm 2 mps 555 mmHg 63%
    18:00 +18°C° 0.1 mm 2 mps 555 mmHg 67%
    19:00 +17°C° 0.1 mm 2 mps 555 mmHg 71%
    20:00 +17°C° 0.1 mm 2 mps 555 mmHg 75%
    21:00 +16°C° 0.3 mm 2 mps 555 mmHg 75%
    22:00 +16°C° 0.3 mm 2 mps 555 mmHg 76%
    23:00 +16°C° 0.3 mm 2 mps 555 mmHg 77%

    20 October, Sunday

    Time Temperature Precipitation Wind Pressure Humidity
    00:00 +15°C° 0.3 mm 2 mps 555 mmHg 74%
    01:00 +15°C° 0.3 mm 1 mps 554 mmHg 71%
    02:00 +15°C° 0.3 mm 1 mps 554 mmHg 68%
    03:00 +15°C° 0 mm 1 mps 554 mmHg 69%
    04:00 +14°C° 0 mm 0 mps 554 mmHg 69%
    05:00 +14°C° 0 mm 0 mps 554 mmHg 69%
    06:00 +15°C° 0 mm 0 mps 554 mmHg 64%
    07:00 +15°C° 0 mm 0 mps 555 mmHg 59%
    08:00 +16°C° 0 mm 0 mps 556 mmHg 54%
    09:00 +19°C° 0 mm 1 mps 556 mmHg 50%
    10:00 +21°C° 0 mm 1 mps 557 mmHg 45%
    11:00 +21°C° 0 mm 2 mps 557 mmHg 41%
    12:00 +23°C° 0.1 mm 2 mps 557 mmHg 39%
    13:00 +24°C° 0.1 mm 2 mps 556 mmHg 37%
    14:00 +25°C° 0.1 mm 2 mps 556 mmHg 34%
    15:00 +24°C° 0.1 mm 2 mps 555 mmHg 36%
    16:00 +24°C° 0.1 mm 2 mps 555 mmHg 38%
    17:00 +24°C° 0.1 mm 3 mps 555 mmHg 40%
    18:00 +22°C° 0 mm 3 mps 554 mmHg 48%
    19:00 +20°C° 0 mm 3 mps 554 mmHg 57%
    20:00 +18°C° 0 mm 3 mps 554 mmHg 65%
    21:00 +18°C° 0 mm 3 mps 554 mmHg 66%
    22:00 +18°C° 0 mm 2 mps 554 mmHg 66%
    23:00 +18°C° 0 mm 1 mps 555 mmHg 67%

    21 October, Monday

    Time Temperature Precipitation Wind Pressure Humidity
    00:00 +18°C° 0 mm 1 mps 554 mmHg 69%
    01:00 +16°C° 0 mm 1 mps 554 mmHg 71%
    02:00 +15°C° 0 mm 0 mps 553 mmHg 74%
    03:00 +14°C° 0 mm 0 mps 553 mmHg 75%
    04:00 +14°C° 0 mm 0 mps 553 mmHg 76%
    05:00 +13°C° 0 mm 0 mps 553 mmHg 77%
    06:00 +15°C° 0 mm 1 mps 554 mmHg 72%
    07:00 +18°C° 0 mm 1 mps 555 mmHg 68%
    08:00 +19°C° 0 mm 1 mps 556 mmHg 63%
    09:00 +20°C° 0.2 mm 1 mps 556 mmHg 59%
    10:00 +21°C° 0.2 mm 1 mps 557 mmHg 55%
    11:00 +21°C° 0.2 mm 2 mps 557 mmHg 51%
    12:00 +23°C° 0.4 mm 2 mps 557 mmHg 49%
    13:00 +23°C° 0.4 mm 2 mps 557 mmHg 46%
    14:00 +24°C° 0.4 mm 2 mps 556 mmHg 44%
    15:00 +22°C° 0.2 mm 3 mps 556 mmHg 46%
    16:00 +22°C° 0.2 mm 3 mps 555 mmHg 49%
    17:00 +21°C° 0.2 mm 4 mps 555 mmHg 51%
    18:00 +20°C° 0.1 mm 3 mps 555 mmHg 57%
    19:00 +19°C° 0.1 mm 3 mps 555 mmHg 62%
    20:00 +18°C° 0.1 mm 2 mps 555 mmHg 68%
    21:00 +17°C° 0.1 mm 2 mps 555 mmHg 71%
    22:00 +17°C° 0.1 mm 2 mps 555 mmHg 75%
    23:00 +16°C° 0.1 mm 2 mps 555 mmHg 78%
    Show more